Weather History for The Dalles, OR

Change the Weather History Date:

Monday, February 18, 2013

  Actual Average Record
Temperature  
Mean Temperature 38 °F -  
Max Temperature 46 °F 48 °F 67 °F (1977)
Min Temperature 30 °F 34 °F 10 °F (2006)
Degree Days  
Heating Degree Days 27    
Moisture  
Dew Point 28 °F    
Average Humidity 68    
Maximum Humidity 85    
Minimum Humidity 52    
Precipitation  
Precipitation 0.00 in - - ()
Sea Level Pressure  
Sea Level Pressure 29.95 in    
Wind  
Wind Speed 2 mph (East)    
Max Wind Speed 6 mph    
Max Gust Speed -    
Visibility 10 miles    
Events      
Averages and records for this station are not official NWS values.
T = Trace of Precipitation, MM = Missing Value Source: NWS Daily Summary

Daily Weather History Graph

Daily Weather History Graph

Search for Another Location

Airport:

Trip Planner

Search our weather history database for the weather conditions in past years. The results will help you decide how hot, cold, wet, or windy it might be!

Date:

Astronomy

Feb. 18, 2013 Rise Set
Actual Time 7:01 AM PST 5:36 PM PST
Civil Twilight 6:30 AM PST 6:06 PM PST
Nautical Twilight 5:56 AM PST 6:41 PM PST
Astronomical Twilight 5:22 AM PST 7:15 PM PST
Moon 11:17 AM PST (2/18) 1:54 AM PST (2/18)
Length of Visible Light 11h 35m
Length of Day
10h 35m
First Quarter, 59% of the Moon is Illuminated
Feb 18
First Quarter
Feb 25
Full
Mar 4
Last Quarter
Mar 11
New
Mar 19
First Quarter

Hourly Weather History & Observations

Time (PST) Temp. Windchill Dew Point Humidity Pressure Visibility Wind Dir Wind Speed Gust Speed Precip Events Conditions
1:53 AM 32.0 °F 26.4 °F 25.0 °F 75% 30.11 in 10.0 mi ESE 5.8 mph - N/A   Clear
2:53 AM 32.0 °F - 25.0 °F 75% 30.09 in 10.0 mi Calm Calm - N/A   Partly Cloudy
4:53 AM 30.9 °F - 25.0 °F 79% 30.06 in 10.0 mi Calm Calm - N/A   Mostly Cloudy
5:53 AM 30.9 °F - 25.0 °F 79% 30.04 in 10.0 mi Calm Calm - N/A   Mostly Cloudy
6:53 AM 30.9 °F - 25.0 °F 79% 30.03 in 10.0 mi Calm Calm - N/A   Mostly Cloudy
7:53 AM 33.1 °F - 27.0 °F 78% 30.04 in 10.0 mi Calm Calm - N/A   Partly Cloudy
8:53 AM 35.1 °F - 27.0 °F 72% 30.03 in 10.0 mi Calm Calm - N/A   Clear
9:53 AM 37.0 °F - 28.0 °F 70% 30.02 in 10.0 mi Calm Calm - N/A   Clear
10:53 AM 41.0 °F - 28.9 °F 62% 29.99 in 10.0 mi Calm Calm - N/A   Clear
11:53 AM 43.0 °F - 28.9 °F 58% 29.98 in 10.0 mi Calm Calm - N/A   Scattered Clouds
12:53 PM 43.0 °F - 28.9 °F 58% 29.95 in 10.0 mi Calm Calm - N/A   Partly Cloudy
1:53 PM 44.1 °F - 30.0 °F 58% 29.93 in 10.0 mi Calm Calm - N/A   Overcast
2:53 PM 46.0 °F 43.9 °F 30.0 °F 54% 29.92 in 10.0 mi NW 4.6 mph - N/A   Mostly Cloudy
3:53 PM 46.9 °F - 30.0 °F 52% 29.91 in 10.0 mi Calm Calm - N/A   Overcast
4:53 PM 46.9 °F - 30.0 °F 52% 29.88 in 10.0 mi Calm Calm - N/A   Overcast
5:53 PM 44.1 °F 42.5 °F 28.9 °F 55% 29.87 in 10.0 mi WNW 3.5 mph - N/A   Overcast
6:53 PM 42.1 °F - 28.9 °F 60% 29.86 in 10.0 mi Calm Calm - N/A   Mostly Cloudy
7:53 PM 39.0 °F - 28.9 °F 67% 29.84 in 10.0 mi Calm Calm - N/A   Overcast
8:53 PM 37.0 °F 32.4 °F 28.9 °F 73% 29.83 in 10.0 mi East 5.8 mph - N/A   Overcast
9:53 PM 36.0 °F 33.3 °F 28.0 °F 73% 29.82 in 10.0 mi East 3.5 mph - N/A   Partly Cloudy
10:53 PM 32.0 °F - 27.0 °F 82% 29.81 in 10.0 mi Calm Calm - N/A   Mostly Cloudy
11:53 PM 30.0 °F 26.5 °F 26.1 °F 85% 29.81 in 10.0 mi ESE 3.5 mph - N/A   Scattered Clouds